Fremont, MI

5:53 AM EDT on August 26, 2019 (GMT -0400)
Fremont

Weather History for KFFX - May, 2019

Change the Weather History Date:

Sunday, May 19, 2019

  Actual Average (KMKG) Record (KMKG)
Temperature  
Mean Temperature 62 °F -  
Max Temperature 70 °F 68 °F 87 °F (1911)
Min Temperature 53 °F 47 °F 29 °F (2002)
Degree Days  
Heating Degree Days 3    
Growing Degree Days 12 (Base 50)    
Moisture  
Dew Point 58 °F    
Average Humidity 84    
Maximum Humidity 99    
Minimum Humidity 65    
Precipitation  
Precipitation 0.00 in - - ()
Sea Level Pressure  
Sea Level Pressure 29.66 in    
Wind  
Wind Speed 7 mph ()    
Max Wind Speed 20 mph    
Max Gust Speed 32 mph    
Visibility 9.5 miles    
Events Rain    
Averages and records for this station are not official NWS values.
T = Trace of Precipitation, MM = Missing Value Source: Averaged Metar Reports

Daily Weather History Graph

Daily Weather History Graph

Search for Another Location

Airport or City:

Astronomy

May. 19, 2019 Rise Set
Actual Time 6:15 AM EDT 9:05 PM EDT
Civil Twilight 5:42 AM EDT 9:39 PM EDT
Nautical Twilight 5:00 AM EDT 10:21 PM EDT
Astronomical Twilight 4:11 AM EDT 11:11 PM EDT
Moon 10:05 PM EDT (5/19) 7:01 AM EDT (5/19)
Length of Visible Light 15h 56m
Length of Day
14h 50m
Full, 99% of the Moon is Illuminated
May 19
Full
May 26
Last Quarter
Jun 3
New
Jun 10
First Quarter
Jun 17
Full

Hourly Weather History & Observations

Time (EDT) Temp. Dew Point Humidity Pressure Visibility Wind Dir Wind Speed Gust Speed Precip Events Conditions
12:15 AM 61.9 °F 55.6 °F 80% 29.77 in 10.0 mi East 3.5 mph - N/A   Overcast
12:36 AM 62.1 °F 55.6 °F 79% 29.78 in 10.0 mi Calm Calm - N/A   Overcast
12:56 AM 62.2 °F 55.6 °F 79% 29.78 in 10.0 mi Calm Calm - N/A   Overcast
1:15 AM 62.2 °F 55.6 °F 79% 29.78 in 10.0 mi ESE 4.6 mph - N/A   Overcast
1:35 AM 61.9 °F 55.9 °F 81% 29.77 in 10.0 mi ESE 3.5 mph - N/A   Overcast
1:56 AM 62.2 °F 55.8 °F 79% 29.76 in 10.0 mi ESE 3.5 mph - N/A   Overcast
2:15 AM 62.1 °F 55.9 °F 80% 29.75 in 10.0 mi ESE 4.6 mph - N/A   Overcast
2:36 AM 61.7 °F 55.8 °F 81% 29.75 in 10.0 mi ESE 5.8 mph - N/A   Overcast
2:56 AM 61.0 °F 55.8 °F 83% 29.75 in 10.0 mi ESE 5.8 mph - N/A   Overcast
3:16 AM 60.6 °F 55.8 °F 84% 29.74 in 10.0 mi ESE 5.8 mph - N/A   Overcast
3:35 AM 59.9 °F 55.4 °F 85% 29.73 in 10.0 mi East 4.6 mph - N/A   Scattered Clouds
3:55 AM 59.2 °F 54.5 °F 84% 29.72 in 10.0 mi East 6.9 mph - N/A   Clear
4:16 AM 58.6 °F 54.5 °F 86% 29.72 in 10.0 mi ESE 5.8 mph - N/A   Clear
4:36 AM 58.5 °F 54.0 °F 85% 29.72 in 10.0 mi East 5.8 mph - N/A   Clear
4:55 AM 58.1 °F 53.6 °F 85% 29.71 in 10.0 mi ESE 6.9 mph - N/A   Clear
5:16 AM 58.1 °F 53.6 °F 85% 29.70 in 10.0 mi ESE 5.8 mph - N/A   Scattered Clouds
5:36 AM 57.7 °F 53.8 °F 87% 29.69 in 10.0 mi East 6.9 mph - N/A   Scattered Clouds
5:55 AM 57.7 °F 54.1 °F 88% 29.69 in 10.0 mi ESE 5.8 mph - N/A   Scattered Clouds
6:15 AM 58.3 °F 54.1 °F 86% 29.68 in 10.0 mi East 8.1 mph - N/A   Scattered Clouds
6:36 AM 59.0 °F 54.5 °F 85% 29.67 in 10.0 mi East 8.1 mph - N/A   Overcast
6:55 AM 59.2 °F 54.5 °F 84% 29.68 in 10.0 mi SE 4.6 mph - N/A   Overcast
7:15 AM 59.2 °F 55.9 °F 89% 29.67 in 10.0 mi ESE 9.2 mph - N/A Rain Light Rain
7:36 AM 59.4 °F 57.2 °F 93% 29.68 in 7.0 mi ESE 9.2 mph - N/A Rain Light Rain
7:56 AM 59.4 °F 58.1 °F 96% 29.67 in 10.0 mi ESE 6.9 mph - N/A Rain Rain
8:15 AM 59.9 °F 59.0 °F 97% 29.68 in 7.0 mi ESE 5.8 mph - N/A Rain Light Rain
8:35 AM 60.4 °F 59.7 °F 97% 29.67 in 7.0 mi SE 4.6 mph - N/A Rain Light Rain
8:56 AM 61.5 °F 61.0 °F 98% 29.66 in 7.0 mi ESE 8.1 mph - N/A Rain Light Rain
9:16 AM 62.8 °F 62.4 °F 99% 29.65 in 7.0 mi SE 6.9 mph - N/A   Mostly Cloudy
9:35 AM 64.9 °F 64.2 °F 98% 29.65 in 10.0 mi SE 9.2 mph - N/A   Scattered Clouds
9:55 AM 66.4 °F 64.8 °F 95% 29.64 in 10.0 mi SSE 6.9 mph - N/A   Mostly Cloudy
10:16 AM 67.5 °F 64.8 °F 91% 29.64 in 10.0 mi South 3.5 mph - N/A   Mostly Cloudy
10:35 AM 68.0 °F 64.0 °F 87% 29.64 in 10.0 mi South 5.8 mph - N/A   Overcast
10:55 AM 68.4 °F 63.5 °F 84% 29.63 in 10.0 mi South 5.8 mph - N/A   Overcast
11:16 AM 70.0 °F 62.6 °F 77% 29.63 in 10.0 mi SSW 10.4 mph 16.1 mph N/A   Overcast
11:36 AM 69.4 °F 62.8 °F 79% 29.63 in 10.0 mi South 5.8 mph - N/A   Overcast
11:55 AM 69.8 °F 61.2 °F 74% 29.62 in 10.0 mi SSW 15.0 mph 24.2 mph N/A Rain Light Rain
12:15 PM 67.5 °F 63.9 °F 88% 29.62 in 4.0 mi SW 17.3 mph 20.7 mph N/A Rain Heavy Rain
12:36 PM 65.5 °F 64.9 °F 98% 29.63 in 3.0 mi SW 19.6 mph 29.9 mph N/A Rain Rain
12:55 PM 65.3 °F 64.4 °F 97% 29.62 in 4.0 mi SSW 19.6 mph 32.2 mph N/A Rain Heavy Rain
1:16 PM 64.8 °F 64.2 °F 98% 29.62 in 10.0 mi SW 15.0 mph 21.9 mph N/A Rain Light Rain
1:36 PM 65.3 °F 64.6 °F 98% 29.61 in 10.0 mi SSW 17.3 mph 23.0 mph N/A Rain Light Rain
1:55 PM 64.9 °F 63.9 °F 96% 29.62 in 10.0 mi SW 18.4 mph 24.2 mph N/A   Overcast
2:15 PM 65.3 °F 64.0 °F 96% 29.61 in 10.0 mi SSW 15.0 mph 23.0 mph N/A   Overcast
2:36 PM 65.3 °F 64.4 °F 97% 29.60 in 7.0 mi SSW 11.5 mph 23.0 mph N/A   Light Drizzle
2:55 PM 65.8 °F 64.2 °F 94% 29.60 in 10.0 mi SSW 12.7 mph 21.9 mph N/A   Overcast
3:15 PM 67.3 °F 64.9 °F 92% 29.59 in 10.0 mi SSW 15.0 mph 23.0 mph N/A   Overcast
3:36 PM 68.9 °F 64.0 °F 84% 29.59 in 10.0 mi SSW 16.1 mph 23.0 mph N/A   Overcast
3:56 PM 69.4 °F 62.4 °F 78% 29.58 in 10.0 mi SSW 19.6 mph 28.8 mph N/A   Overcast
4:16 PM 70.0 °F 61.9 °F 75% 29.56 in 10.0 mi SSW 17.3 mph 25.3 mph N/A   Overcast
4:35 PM 70.7 °F 61.9 °F 74% 29.55 in 10.0 mi SSW 17.3 mph 23.0 mph N/A   Overcast
4:56 PM 68.9 °F 61.0 °F 76% 29.56 in 10.0 mi SW 18.4 mph 24.2 mph N/A Rain Light Rain
5:16 PM 65.1 °F 58.3 °F 78% 29.56 in 10.0 mi West 13.8 mph 26.5 mph N/A   Overcast
5:35 PM 63.9 °F 60.4 °F 89% 29.56 in 10.0 mi SW 17.3 mph 23.0 mph N/A   Overcast
5:56 PM 63.3 °F 57.6 °F 81% 29.56 in 10.0 mi SW 12.7 mph 25.3 mph N/A   Overcast
6:16 PM 64.6 °F 56.5 °F 75% 29.56 in 10.0 mi SW 11.5 mph - N/A   Mostly Cloudy
6:36 PM 66.2 °F 55.8 °F 69% 29.57 in 10.0 mi SW 13.8 mph 19.6 mph N/A   Scattered Clouds
6:55 PM 67.1 °F 55.8 °F 67% 29.56 in 10.0 mi SW 15.0 mph 19.6 mph N/A   Clear
7:15 PM 67.3 °F 55.6 °F 66% 29.57 in 10.0 mi SW 13.8 mph 24.2 mph N/A   Clear
7:36 PM 66.7 °F 54.9 °F 66% 29.58 in 10.0 mi SW 18.4 mph 23.0 mph N/A   Scattered Clouds
7:55 PM 66.2 °F 54.1 °F 65% 29.60 in 10.0 mi WSW 16.1 mph 25.3 mph N/A   Scattered Clouds
8:15 PM 64.6 °F 53.2 °F 67% 29.61 in 10.0 mi West 13.8 mph 24.2 mph N/A   Mostly Cloudy
8:36 PM 61.9 °F 52.0 °F 70% 29.62 in 10.0 mi West 13.8 mph - N/A   Mostly Cloudy
9:15 PM 58.3 °F 51.6 °F 78% 29.65 in 10.0 mi West 10.4 mph - N/A   Overcast
9:36 PM 56.5 °F 50.9 °F 82% 29.66 in 10.0 mi WNW 11.5 mph 16.1 mph N/A   Overcast
9:56 PM 55.9 °F 50.4 °F 82% 29.67 in 10.0 mi WNW 11.5 mph - N/A   Overcast
10:15 PM 55.4 °F 49.5 °F 80% 29.69 in 10.0 mi WNW 11.5 mph - N/A   Overcast
10:35 PM 54.7 °F 48.9 °F 81% 29.69 in 10.0 mi West 9.2 mph - N/A   Overcast
10:56 PM 54.9 °F 48.2 °F 78% 29.70 in 10.0 mi West 8.1 mph - N/A   Overcast
11:15 PM 54.7 °F 46.9 °F 75% 29.70 in 10.0 mi West 10.4 mph 16.1 mph N/A   Overcast
11:35 PM 54.3 °F 46.0 °F 74% 29.70 in 10.0 mi West 9.2 mph 17.3 mph N/A   Overcast
11:56 PM 53.2 °F 46.4 °F 78% 29.71 in 10.0 mi West 11.5 mph - N/A   Overcast